Weather History for New Braunfels, TX

Change the Weather History Date:

Friday, September 27, 2013

  Actual Average (KSAT) Record (KSAT)
Temperature  
Mean Temperature 82 °F 76 °F  
Max Temperature 93 °F 87 °F 102 °F (2005)
Min Temperature 73 °F 66 °F 41 °F (1942)
Degree Days  
Heating Degree Days 0 0  
Month to date heating degree days 0  
Since 1 July heating degree days 0  
Cooling Degree Days 17 12  
Month to date cooling degree days 410  
Year to date cooling degree days 2801  
Growing Degree Days 32 (Base 50)    
Moisture  
Dew Point 73 °F    
Average Humidity 86    
Maximum Humidity 100    
Minimum Humidity 55    
Precipitation  
Precipitation 0.23 in 0.09 in 3.54 in (1896)
Month to date precipitation 2.73  
Year to date precipitation 23.67  
Snow  
Snow 0.00 in - - ()
Month to date snowfall  
Since 1 July snowfall  
Since 1 September snowfall  
Snow Depth -    
Sea Level Pressure  
Sea Level Pressure 29.86 in    
Wind  
Wind Speed 7 mph (SSE)    
Max Wind Speed 25 mph    
Max Gust Speed 32 mph    
Visibility 8 miles    
Events Rain , Thunderstorm    
T = Trace of Precipitation, MM = Missing Value Source: NWS Daily Summary

Daily Weather History Graph

Daily Weather History Graph

Search for Another Location

Airport:

Trip Planner

Search our weather history database for the weather conditions in past years. The results will help you decide how hot, cold, wet, or windy it might be!

Date:

Astronomy

Sep. 27, 2013 Rise Set
Actual Time 7:23 AM CDT 7:22 PM CDT
Civil Twilight 6:59 AM CDT 7:45 PM CDT
Nautical Twilight 6:31 AM CDT 8:13 PM CDT
Astronomical Twilight 6:04 AM CDT 8:41 PM CDT
Moon 12:44 AM CDT (9/27) 2:38 PM CDT (9/27)
Length of Visible Light 12h 46m
Length of Day
11h 58m
Last Quarter, 45% of the Moon is Illuminated
Sep 27
Last Quarter
Oct 4
New
Oct 11
First Quarter
Oct 18
Full
Oct 26
Last Quarter

Hourly Weather History & Observations

Time (CDT) Temp. Heat Index Dew Point Humidity Pressure Visibility Wind Dir Wind Speed Gust Speed Precip Events Conditions
12:51 AM 75.9 °F - 73.0 °F 91% 29.86 in 10.0 mi South 8.1 mph - N/A   Scattered Clouds
1:09 AM 77.0 °F - 73.4 °F 89% 29.89 in 10.0 mi South 8.1 mph - N/A   Mostly Cloudy
1:51 AM 75.9 °F - 73.0 °F 91% 29.86 in 10.0 mi South 8.1 mph - N/A   Mostly Cloudy
2:14 AM 75.2 °F - 73.4 °F 94% 29.88 in 10.0 mi South 5.8 mph - N/A   Mostly Cloudy
2:24 AM 75.2 °F - 73.4 °F 94% 29.88 in 10.0 mi South 4.6 mph - N/A   Partly Cloudy
2:51 AM 75.0 °F - 73.0 °F 94% 29.85 in 10.0 mi South 4.6 mph - N/A   Mostly Cloudy
3:08 AM 75.2 °F - 73.4 °F 94% 29.88 in 10.0 mi South 3.5 mph - N/A   Mostly Cloudy
3:18 AM 73.4 °F - 73.4 °F 100% 29.87 in 10.0 mi South 4.6 mph - N/A   Scattered Clouds
3:44 AM 75.2 °F - 73.4 °F 94% 29.87 in 10.0 mi South 4.6 mph - N/A   Mostly Cloudy
3:51 AM 75.0 °F - 73.0 °F 94% 29.84 in 10.0 mi South 4.6 mph - N/A   Mostly Cloudy
4:13 AM 73.4 °F - 73.4 °F 100% 29.86 in 9.0 mi SSE 4.6 mph - N/A   Mostly Cloudy
4:38 AM 73.4 °F - 73.4 °F 100% 29.86 in 8.0 mi South 3.5 mph - N/A   Overcast
4:51 AM 73.9 °F - 72.0 °F 93% 29.83 in 8.0 mi SSE 3.5 mph - N/A   Overcast
4:58 AM 73.4 °F - 73.4 °F 100% 29.86 in 8.0 mi South 3.5 mph - N/A   Mostly Cloudy
5:29 AM 75.2 °F - 73.4 °F 94% 29.86 in 8.0 mi Calm Calm - N/A   Overcast
5:51 AM 73.9 °F - 73.0 °F 97% 29.84 in 7.0 mi SE 3.5 mph - N/A   Overcast
6:33 AM 73.4 °F - 71.6 °F 94% 29.88 in 6.0 mi ESE 3.5 mph - N/A   Mostly Cloudy
6:40 AM 73.4 °F - 71.6 °F 94% 29.88 in 5.0 mi SE 3.5 mph - N/A   Mostly Cloudy
6:47 AM 73.4 °F - 71.6 °F 94% 29.88 in 5.0 mi SE 3.5 mph - N/A   Mostly Cloudy
6:51 AM 73.0 °F - 72.0 °F 96% 29.86 in 4.0 mi Calm Calm - N/A   Mostly Cloudy
7:00 AM 73.4 °F - 73.4 °F 100% 29.88 in 2.5 mi Calm Calm - N/A   Overcast
7:28 AM 73.4 °F - 73.4 °F 100% 29.89 in 2.5 mi SE 3.5 mph - N/A   Overcast
7:41 AM 73.4 °F - 73.4 °F 100% 29.89 in 2.5 mi SE 3.5 mph - N/A   Overcast
7:51 AM 75.0 °F - 73.0 °F 94% 29.87 in 2.0 mi ESE 4.6 mph - N/A   Overcast
7:58 AM 75.2 °F - 73.4 °F 94% 29.90 in 1.5 mi SE 3.5 mph - N/A   Overcast
8:13 AM 75.2 °F - 73.4 °F 94% 29.90 in 4.0 mi SE 5.8 mph - N/A   Overcast
8:51 AM 77.0 °F - 75.0 °F 94% 29.88 in 10.0 mi SSE 8.1 mph - N/A   Overcast
9:16 AM 78.8 °F - 73.4 °F 83% 29.91 in 10.0 mi South 12.7 mph - N/A   Overcast
9:51 AM 80.1 °F 84.5 °F 73.9 °F 81% 29.89 in 10.0 mi South 9.2 mph - N/A   Overcast
10:22 AM 82.4 °F 88.2 °F 73.4 °F 74% 29.91 in 10.0 mi SSE 11.5 mph - N/A   Overcast
10:51 AM 82.0 °F 87.9 °F 73.9 °F 76% 29.89 in 10.0 mi South 11.5 mph - N/A   Overcast
11:51 AM 86.0 °F 93.8 °F 73.9 °F 67% 29.88 in 10.0 mi SSE 13.8 mph - N/A   Mostly Cloudy
11:58 AM 84.2 °F 90.9 °F 73.4 °F 70% 29.90 in 10.0 mi SSE 13.8 mph - N/A   Overcast
12:51 PM 87.1 °F 95.4 °F 73.9 °F 65% 29.86 in 10.0 mi South 15.0 mph - 0.00 in   Overcast
1:51 PM 91.0 °F 100.4 °F 73.9 °F 57% 29.83 in 10.0 mi SSE 12.7 mph - N/A   Mostly Cloudy
2:38 PM 91.4 °F 100.1 °F 73.4 °F 55% 29.84 in 10.0 mi SE 25.3 mph 29.9 mph N/A Thunderstorm Thunderstorm
2:51 PM 91.0 °F 99.3 °F 73.0 °F 55% 29.81 in 10.0 mi SE 17.3 mph - N/A Thunderstorm Thunderstorm
3:26 PM 77.0 °F - 71.6 °F 83% 29.83 in 2.5 mi SSW 19.6 mph 32.2 mph 0.05 in Rain , Thunderstorm Heavy Thunderstorms and Rain
3:29 PM 75.2 °F - 71.6 °F 89% 29.84 in 1.0 mi SSW 10.4 mph 32.2 mph 0.15 in Rain , Thunderstorm Heavy Thunderstorms and Rain
3:36 PM 75.2 °F - 71.6 °F 89% 29.84 in 10.0 mi South 4.6 mph - N/A Rain , Thunderstorm Thunderstorms and Rain
3:51 PM 79.0 °F - 75.0 °F 88% 29.82 in 10.0 mi South 10.4 mph - 0.23 in   Mostly Cloudy
4:51 PM 82.9 °F 90.2 °F 75.0 °F 77% 29.81 in 10.0 mi SSE 10.4 mph - 0.00 in   Scattered Clouds
5:51 PM 86.0 °F 93.8 °F 73.9 °F 67% 29.80 in 10.0 mi SSE 10.4 mph - N/A   Clear
6:51 PM 84.9 °F 92.1 °F 73.9 °F 69% 29.81 in 10.0 mi SE 15.0 mph - N/A   Clear
7:51 PM 82.9 °F 89.4 °F 73.9 °F 74% 29.81 in 10.0 mi SE 12.7 mph - N/A   Clear
8:51 PM 81.0 °F 85.8 °F 73.0 °F 77% 29.82 in 10.0 mi SE 11.5 mph - N/A   Clear
9:51 PM 80.1 °F 84.5 °F 73.9 °F 81% 29.84 in 10.0 mi SSE 12.7 mph - N/A   Clear
10:28 PM 78.8 °F - 73.4 °F 83% 29.87 in 10.0 mi SSE 15.0 mph - N/A   Mostly Cloudy
10:51 PM 80.1 °F 85.1 °F 75.0 °F 85% 29.86 in 10.0 mi SSE 13.8 mph - N/A   Mostly Cloudy
11:51 PM 80.1 °F 85.1 °F 75.0 °F 85% 29.86 in 10.0 mi SSE 11.5 mph - N/A   Overcast